Date String (YYYY-MM-DD hh:mm:ss) UTC,Instrument flags,absolute air pressure of the measurement (hPa),sample flow rate (lpm),inlet stack bypass flow (lpm),air temperature of the measurement (°C),ambient temperature measured by the external sensor (°C),aerosol sample conditioner tube jacket temperature (°C),OPC LED temperature (°C),internal box temperature (°C),relative humidity of the measurement (%),span deviation,mass concentration of particles derived from Lorenz-Mie calculation of OPC scattering (μg/m³),mass concentration of particles derived from Lorenz-Mie calculation of OPC scattering (μg/m³),mass concentration of particles derived from Lorenz-Mie calculation of OPC scattering (μg/m³)
DateTimeUTC,F1_M11,P_M11,Q1_M11,Q2_M11,T1_M11,T2_M11,T3_M11,T4_M11,T5_M11,U1_M11,ZSPAN_M11,X0_M11,X2_M11,X1_M11
2024-04-03 07:00:00,SystemResetWarning,0831.1,4.99,000.00,023.2,022.5,000.0,031.8,025.0,12.9,0000.0,0003.72,0002.06,0001.42
2024-04-03 07:01:00,SystemResetWarning,0831.1,5.00,000.00,023.2,022.5,000.0,031.8,025.0,12.9,0000.0,0003.73,0002.08,0001.42
2024-04-03 07:02:00,SystemResetWarning,0831.2,4.99,000.00,023.2,022.5,000.0,031.8,025.0,12.9,0000.0,0003.74,0002.11,0001.42
2024-04-03 07:03:00,SystemResetWarning,0831.2,5.00,000.00,023.2,022.5,000.0,031.8,025.0,12.9,0000.0,0003.73,0002.10,0001.42
2024-04-03 07:04:00,SystemResetWarning,0831.1,5.01,000.00,023.2,022.5,000.0,031.8,025.0,13.1,0000.0,0003.51,0002.03,0001.41
2024-04-03 07:05:00,SystemResetWarning,0831.1,5.00,000.00,023.2,022.5,000.0,031.8,025.0,13.0,0000.0,0003.39,0002.04,0001.41
2024-04-03 07:06:00,SystemResetWarning,0831.1,5.00,000.00,023.2,022.5,000.0,031.8,025.0,13.1,0000.0,0003.37,0002.04,0001.41
2024-04-03 07:07:00,SystemResetWarning,0831.1,5.00,000.00,023.2,022.5,000.0,031.8,025.0,13.2,0000.0,0003.26,0002.02,0001.41
2024-04-03 07:08:00,SystemResetWarning,0831.2,5.00,000.00,023.2,022.4,000.0,031.8,025.0,13.2,0000.0,0003.15,0001.99,0001.40
2024-04-03 07:09:00,SystemResetWarning,0831.1,4.99,000.00,023.2,022.4,000.0,031.8,025.0,13.2,0000.0,0003.16,0002.00,0001.41
2024-04-03 07:10:00,SystemResetWarning,0831.1,5.00,000.00,023.2,022.4,000.0,031.8,025.0,13.1,0000.0,0003.06,0001.99,0001.42
2024-04-03 07:11:00,SystemResetWarning,0831.1,4.99,000.00,023.2,022.4,000.0,031.8,025.0,13.2,0000.0,0002.97,0001.96,0001.42
2024-04-03 07:12:00,SystemResetWarning,0831.1,5.00,000.00,023.2,022.4,000.0,031.8,025.0,13.3,0000.0,0002.89,0001.91,0001.42
2024-04-03 07:13:00,SystemResetWarning,0831.1,5.01,000.00,023.2,022.4,000.0,031.8,025.0,13.4,0000.0,0002.72,0001.85,0001.43
2024-04-03 07:14:00,SystemResetWarning,0831.1,5.00,000.00,023.2,022.4,000.0,031.8,025.0,13.4,0000.0,0002.63,0001.83,0001.42
2024-04-03 07:15:00,SystemResetWarning,0831.1,4.99,000.00,023.2,022.4,000.0,031.8,025.0,13.4,0000.0,0002.71,0001.85,0001.43
2024-04-03 07:16:00,SystemResetWarning,0831.1,4.99,000.00,023.2,022.4,000.0,031.8,025.0,13.4,0000.0,0002.71,0001.84,0001.42
2024-04-03 07:17:00,SystemResetWarning,0831.0,5.01,000.00,023.2,022.4,000.0,031.7,025.0,13.3,0000.0,0002.83,0001.83,0001.41
2024-04-03 07:18:00,SystemResetWarning,0831.1,5.01,000.00,023.1,022.4,000.0,031.7,025.0,13.3,0000.0,0003.16,0001.85,0001.40
2024-04-03 07:19:00,SystemResetWarning,0831.1,5.00,000.00,023.1,022.3,000.0,031.7,025.0,13.6,0000.0,0003.44,0001.95,0001.42
2024-04-03 07:20:00,SystemResetWarning,0831.1,5.00,000.00,023.1,022.3,000.0,031.7,024.9,13.4,0000.0,0003.51,0001.97,0001.43
2024-04-03 07:21:00,SystemResetWarning,0831.1,5.00,000.00,023.1,022.3,000.0,031.7,024.9,13.4,0000.0,0003.55,0001.98,0001.43
2024-04-03 07:22:00,SystemResetWarning,0831.2,4.99,000.00,023.1,022.3,000.0,031.7,024.9,13.4,0000.0,0003.68,0002.02,0001.42
2024-04-03 07:23:00,SystemResetWarning,0831.2,5.00,000.00,023.1,022.3,000.0,031.7,024.9,13.6,0000.0,0003.69,0002.04,0001.42
2024-04-03 07:24:00,SystemResetWarning,0831.1,5.00,000.00,023.1,022.3,000.0,031.7,024.9,13.5,0000.0,0003.84,0002.09,0001.42
2024-04-03 07:25:00,SystemResetWarning,0831.2,5.00,000.00,023.1,022.3,000.0,031.7,024.9,13.6,0000.0,0003.95,0002.12,0001.43
2024-04-03 07:26:00,SystemResetWarning,0831.2,5.00,000.00,023.1,022.3,000.0,031.7,024.9,13.7,0000.0,0003.98,0002.14,0001.43
2024-04-03 07:27:00,SystemResetWarning,0831.2,5.01,000.00,023.1,022.3,000.0,031.7,024.9,13.7,0000.0,0004.00,0002.14,0001.44
2024-04-03 07:28:00,SystemResetWarning,0831.1,5.00,000.00,023.1,022.3,000.0,031.7,024.9,13.7,0000.0,0003.98,0002.15,0001.45
2024-04-03 07:29:00,SystemResetWarning,0831.1,5.00,000.00,023.1,022.3,000.0,031.7,024.9,13.6,0000.0,0003.77,0002.21,0001.47
2024-04-03 07:30:00,SystemResetWarning,0831.2,5.00,000.00,023.1,022.3,000.0,031.7,024.9,13.6,0000.0,0003.70,0002.18,0001.48
2024-04-03 07:31:00,SystemResetWarning,0831.1,5.00,000.00,023.1,022.3,000.0,031.6,024.9,13.6,0000.0,0003.52,0002.12,0001.47
2024-04-03 07:32:00,SystemResetWarning,0831.1,5.00,000.00,023.1,022.3,000.0,031.6,024.9,13.7,0000.0,0003.47,0002.11,0001.47
2024-04-03 07:33:00,SystemResetWarning,0831.2,5.00,000.00,023.1,022.3,000.0,031.6,024.9,13.7,0000.0,0003.47,0002.13,0001.49
2024-04-03 07:34:00,SystemResetWarning,0831.1,5.00,000.00,023.1,022.3,000.0,031.6,024.9,13.8,0000.0,0003.50,0002.13,0001.49
2024-04-03 07:35:00,SystemResetWarning,0831.2,5.00,000.00,023.0,022.3,000.0,031.6,024.9,13.8,0000.0,0003.39,0002.12,0001.49
2024-04-03 07:36:00,SystemResetWarning,0831.2,5.00,000.00,023.0,022.3,000.0,031.6,024.9,13.9,0000.0,0003.31,0002.11,0001.49
2024-04-03 07:37:00,SystemResetWarning,0831.1,5.00,000.00,023.0,022.3,000.0,031.6,024.9,13.9,0000.0,0003.32,0002.11,0001.49
2024-04-03 07:38:00,SystemResetWarning,0831.1,4.99,000.00,023.0,022.2,000.0,031.6,024.9,13.7,0000.0,0003.42,0002.12,0001.49
2024-04-03 07:39:00,SystemResetWarning,0831.2,5.00,000.00,023.0,022.2,000.0,031.6,024.9,13.6,0000.0,0003.61,0002.18,0001.50
2024-04-03 07:40:00,SystemResetWarning,0831.2,5.00,000.00,023.0,022.2,000.0,031.6,024.9,13.5,0000.0,0003.68,0002.19,0001.49
2024-04-03 07:41:00,SystemResetWarning,0831.2,5.00,000.00,023.0,022.2,000.0,031.6,024.8,13.6,0000.0,0003.71,0002.18,0001.49
2024-04-03 07:42:00,SystemResetWarning,0831.1,5.01,000.00,023.0,022.2,000.0,031.6,024.8,13.8,0000.0,0003.76,0002.20,0001.51
2024-04-03 07:43:00,SystemResetWarning,0831.1,5.01,000.00,023.0,022.2,000.0,031.6,024.8,13.6,0000.0,0003.90,0002.20,0001.53
2024-04-03 07:44:00,SystemResetWarning,0831.1,5.00,000.00,023.0,022.2,000.0,031.6,024.8,13.6,0000.0,0003.89,0002.19,0001.54
2024-04-03 07:45:00,SystemResetWarning,0831.2,5.00,000.00,023.0,022.2,000.0,031.6,024.8,13.7,0000.0,0004.00,0002.22,0001.55
2024-04-03 07:46:00,SystemResetWarning,0831.2,4.99,000.00,023.0,022.2,000.0,031.6,024.8,13.8,0000.0,0003.99,0002.24,0001.55
2024-04-03 07:47:00,SystemResetWarning,0831.2,4.99,000.00,023.0,022.2,000.0,031.6,024.8,13.9,0000.0,0004.05,0002.27,0001.55
2024-04-03 07:48:00,SystemResetWarning,0831.1,5.00,000.00,023.0,022.2,000.0,031.6,024.8,13.7,0000.0,0004.01,0002.26,0001.56
2024-04-03 07:49:00,SystemResetWarning,0831.1,5.00,000.00,023.0,022.2,000.0,031.5,024.8,13.6,0000.0,0004.01,0002.29,0001.59
2024-04-03 07:50:00,SystemResetWarning,0831.1,5.01,000.00,023.0,022.1,000.0,031.5,024.8,13.6,0000.0,0003.94,0002.26,0001.59
2024-04-03 07:51:00,SystemResetWarning,0831.2,5.01,000.00,022.9,022.1,000.0,031.5,024.8,13.7,0000.0,0004.06,0002.21,0001.59
2024-04-03 07:52:00,SystemResetWarning,0831.1,5.01,000.00,022.9,022.1,000.0,031.5,024.8,13.7,0000.0,0003.91,0002.16,0001.59
2024-04-03 07:53:00,SystemResetWarning,0831.1,4.99,000.00,022.9,022.1,000.0,031.5,024.8,13.6,0000.0,0004.01,0002.14,0001.58
2024-04-03 07:54:00,SystemResetWarning,0831.1,4.99,000.00,022.9,022.1,000.0,031.5,024.7,13.8,0000.0,0003.85,0002.12,0001.57
2024-04-03 07:55:00,SystemResetWarning,0831.1,4.99,000.00,022.9,022.1,000.0,031.5,024.7,13.8,0000.0,0003.80,0002.10,0001.56
2024-04-03 07:56:00,SystemResetWarning,0831.1,5.00,000.00,022.9,022.1,000.0,031.5,024.7,13.8,0000.0,0003.66,0002.07,0001.56
2024-04-03 07:57:00,SystemResetWarning,0831.1,5.00,000.00,022.9,022.1,000.0,031.5,024.7,13.7,0000.0,0003.74,0002.08,0001.57
2024-04-03 07:58:00,SystemResetWarning,0831.1,5.01,000.00,022.9,022.1,000.0,031.5,024.7,14.1,0000.0,0003.68,0002.04,0001.57
2024-04-03 07:59:00,SystemResetWarning,0831.1,5.01,000.00,022.9,022.1,000.0,031.5,024.7,14.2,0000.0,0003.58,0002.02,0001.56
